Weather History for KFLY - February, 2014

Change the Weather History Date:

Monday, February 24, 2014

  Actual Average (KCOS) Record (KCOS)
Temperature  
Mean Temperature 40 °F 34 °F  
Max Temperature 60 °F 47 °F 71 °F (1986)
Min Temperature 19 °F 21 °F -5 °F (1955)
Degree Days  
Heating Degree Days 26 31  
Month to date heating degree days 796  
Since 1 July heating degree days 4439  
Cooling Degree Days 0 0  
Month to date cooling degree days 0  
Year to date cooling degree days 0  
Moisture  
Dew Point 15 °F    
Average Humidity 53    
Maximum Humidity 97    
Minimum Humidity 14    
Precipitation  
Precipitation 0.00 in 0.01 in 0.36 in (1912)
Month to date precipitation 0.27  
Year to date precipitation 0.59  
Snow  
Snow 0.00 in 0.20 in 5.30 in (1912)
Month to date snowfall 4.2  
Since 1 July snowfall 23.3  
Snow Depth -    
Sea Level Pressure  
Sea Level Pressure 30.00 in    
Wind  
Wind Speed 11 mph (WNW)    
Max Wind Speed 24 mph    
Max Gust Speed 32 mph    
Visibility 10 miles    
Events      
T = Trace of Precipitation, MM = Missing Value Source: NWS Daily Summary

Daily Weather History Graph

Daily Weather History Graph

Search for Another Location

Airport or City:

Trip Planner

Search our weather history database for the weather conditions in past years. The results will help you decide how hot, cold, wet, or windy it might be!

Date:

Astronomy

Feb. 24, 2014 Rise Set
Actual Time 6:37 AM MST 5:45 PM MST
Civil Twilight 6:10 AM MST 6:12 PM MST
Nautical Twilight 5:39 AM MST 6:43 PM MST
Astronomical Twilight 5:09 AM MST 7:14 PM MST
Moon 2:37 AM MST (2/24) 12:50 PM MST (2/24)
Length of Visible Light 12h 01m
Length of Day
11h 08m
Waning Crescent, 27% of the Moon is Illuminated
Feb 24
Waning Crescent
Mar 1
New
Mar 8
First Quarter
Mar 16
Full
Mar 23
Last Quarter

Hourly Weather History & Observations

Time (MST) Temp. Windchill Dew Point Humidity Pressure Visibility Wind Dir Wind Speed Gust Speed Precip Events Conditions
12:11 AM 23.4 °F 11.1 °F 20.8 °F 90% 29.98 in 10.0 mi West 13.8 mph - N/A   Clear
12:31 AM 23.9 °F 12.9 °F 21.2 °F 89% 29.98 in 10.0 mi West 11.5 mph - N/A   Clear
12:51 AM 23.7 °F 17.8 °F 20.3 °F 87% 29.98 in 10.0 mi East 4.6 mph - N/A   Clear
1:11 AM 22.1 °F 13.7 °F 19.8 °F 91% 29.98 in 10.0 mi WSW 6.9 mph - N/A   Clear
1:31 AM 24.6 °F 14.4 °F 20.1 °F 83% 29.97 in 10.0 mi West 10.4 mph - N/A   Clear
1:51 AM 25.7 °F 18.0 °F 18.1 °F 73% 29.97 in 10.0 mi West 6.9 mph - N/A   Clear
2:11 AM 26.4 °F 20.9 °F 17.1 °F 68% 29.97 in 10.0 mi WSW 4.6 mph - N/A   Clear
2:31 AM 24.8 °F 14.6 °F 17.2 °F 73% 29.96 in 10.0 mi SW 10.4 mph - N/A   Clear
2:51 AM 25.9 °F 16.0 °F 16.7 °F 68% 29.96 in 10.0 mi West 10.4 mph - N/A   Clear
3:11 AM 28.0 °F 18.6 °F 16.2 °F 61% 29.95 in 10.0 mi West 10.4 mph - N/A   Clear
3:31 AM 28.0 °F 19.3 °F 15.4 °F 59% 29.95 in 10.0 mi West 9.2 mph - N/A   Clear
3:51 AM 28.8 °F 20.2 °F 14.2 °F 55% 29.95 in 10.0 mi WSW 9.2 mph - N/A   Clear
4:11 AM 30.4 °F 23.6 °F 14.2 °F 51% 29.95 in 10.0 mi WSW 6.9 mph - N/A   Clear
4:31 AM 28.2 °F 24.4 °F 13.5 °F 54% 29.95 in 10.0 mi West 3.5 mph - N/A   Clear
4:51 AM 25.0 °F 19.3 °F 14.2 °F 64% 29.96 in 10.0 mi West 4.6 mph - N/A   Clear
5:11 AM 24.1 °F 18.2 °F 14.0 °F 65% 29.96 in 10.0 mi WSW 4.6 mph - N/A   Clear
5:31 AM 24.8 °F 19.1 °F 13.6 °F 63% 29.96 in 10.0 mi West 4.6 mph - N/A   Clear
5:51 AM 31.1 °F 25.4 °F 11.5 °F 44% 29.96 in 10.0 mi SSW 5.8 mph - N/A   Clear
6:11 AM 36.3 °F - 8.2 °F 31% 29.96 in 10.0 mi Calm Calm - N/A   Clear
6:31 AM 33.3 °F - 8.2 °F 35% 29.96 in 10.0 mi Calm Calm - N/A   Clear
6:51 AM 30.4 °F 26.9 °F 10.9 °F 44% 29.97 in 10.0 mi NW 3.5 mph - N/A   Clear
7:11 AM 27.7 °F 19.6 °F 14.4 °F 57% 29.97 in 10.0 mi WNW 8.1 mph - N/A   Clear
7:31 AM 29.8 °F 23.0 °F 16.0 °F 56% 29.98 in 10.0 mi WNW 6.9 mph - N/A   Clear
7:51 AM 33.8 °F 29.6 °F 16.9 °F 50% 29.99 in 10.0 mi West 4.6 mph - N/A   Clear
8:11 AM 36.9 °F 34.3 °F 16.2 °F 43% 29.99 in 10.0 mi NW 3.5 mph - N/A   Clear
8:31 AM 43.5 °F 40.1 °F 14.7 °F 31% 29.99 in 10.0 mi West 5.8 mph - N/A   Clear
8:51 AM 46.4 °F 42.4 °F 12.4 °F 25% 29.99 in 10.0 mi West 8.1 mph - N/A   Clear
9:11 AM 48.2 °F - 11.1 °F 22% 29.99 in 10.0 mi West 6.9 mph - N/A   Clear
9:31 AM 49.5 °F - 8.4 °F 19% 29.99 in 10.0 mi WSW 6.9 mph - N/A   Clear
9:51 AM 49.5 °F - 7.9 °F 19% 29.98 in 10.0 mi West 16.1 mph 20.7 mph N/A   Clear
10:11 AM 50.2 °F - 7.7 °F 18% 29.98 in 10.0 mi West 11.5 mph - N/A   Clear
10:31 AM 50.5 °F - 7.3 °F 17% 29.99 in 10.0 mi West 12.7 mph 18.4 mph N/A   Clear
10:51 AM 52.5 °F - 8.4 °F 17% 29.98 in 10.0 mi West 16.1 mph 20.7 mph N/A   Clear
11:11 AM 52.9 °F - 8.2 °F 17% 29.98 in 10.0 mi West 15.0 mph 19.6 mph N/A   Clear
11:31 AM 53.4 °F - 8.2 °F 16% 29.98 in 10.0 mi West 12.7 mph 17.3 mph N/A   Clear
11:51 AM 53.4 °F - 8.1 °F 16% 29.97 in 10.0 mi SW 12.7 mph 18.4 mph N/A   Clear
12:11 PM 54.3 °F - 9.1 °F 16% 29.96 in 10.0 mi WSW 8.1 mph - N/A   Clear
12:31 PM 57.4 °F - 9.3 °F 15% 29.95 in 10.0 mi West 9.2 mph 17.3 mph N/A   Clear
12:51 PM 57.7 °F - 9.9 °F 15% 29.95 in 10.0 mi West 17.3 mph 21.9 mph N/A   Clear
1:11 PM 58.8 °F - 10.2 °F 15% 29.94 in 10.0 mi West 10.4 mph 21.9 mph N/A   Clear
1:31 PM 59.2 °F - 10.4 °F 15% 29.94 in 10.0 mi West 12.7 mph 23.0 mph N/A   Clear
1:51 PM 60.1 °F - 10.9 °F 14% 29.93 in 10.0 mi West 21.9 mph 27.6 mph N/A   Clear
2:11 PM 59.7 °F - 10.8 °F 15% 29.93 in 10.0 mi West 19.6 mph 27.6 mph N/A   Clear
2:31 PM 59.9 °F - 11.3 °F 15% 29.93 in 10.0 mi West 16.1 mph 21.9 mph N/A   Clear
2:51 PM 59.7 °F - 10.8 °F 15% 29.94 in 10.0 mi West 19.6 mph 24.2 mph N/A   Clear
3:11 PM 59.7 °F - 10.9 °F 15% 29.94 in 10.0 mi WNW 9.2 mph - N/A   Scattered Clouds
3:31 PM 59.9 °F - 11.1 °F 15% 29.95 in 10.0 mi West 12.7 mph - N/A   Scattered Clouds
3:51 PM 59.0 °F - 10.8 °F 15% 29.96 in 10.0 mi WNW 17.3 mph 23.0 mph N/A   Clear
4:11 PM 58.5 °F - 10.8 °F 15% 29.96 in 10.0 mi NW 9.2 mph 17.3 mph N/A   Scattered Clouds
4:31 PM 57.6 °F - 10.0 °F 15% 29.97 in 10.0 mi West 15.0 mph - N/A   Clear
4:51 PM 56.5 °F - 9.3 °F 15% 29.98 in 10.0 mi WNW 15.0 mph 20.7 mph N/A   Clear
5:11 PM 54.9 °F - 11.8 °F 18% 29.98 in 10.0 mi West 12.7 mph - N/A   Clear
5:31 PM 49.1 °F - 17.4 °F 28% 30.02 in 10.0 mi NE 16.1 mph 19.6 mph N/A   Clear
5:51 PM 32.7 °F 21.4 °F 25.3 °F 74% 30.03 in 10.0 mi NNE 18.4 mph 24.2 mph N/A   Clear
6:11 PM 29.1 °F 16.7 °F 23.9 °F 81% 30.03 in 10.0 mi North 18.4 mph 24.2 mph N/A   Clear
6:31 PM 26.1 °F 14.5 °F 22.8 °F 88% 30.06 in 10.0 mi NE 13.8 mph 21.9 mph N/A   Clear
6:51 PM 25.2 °F 10.8 °F 22.8 °F 91% 30.08 in 10.0 mi North 20.7 mph 28.8 mph N/A   Scattered Clouds
7:11 PM 23.5 °F 9.0 °F 21.9 °F 94% 30.07 in 7.0 mi North 19.6 mph 31.1 mph N/A   Scattered Clouds
7:31 PM 22.8 °F 8.1 °F 21.2 °F 93% 30.07 in 7.0 mi North 19.6 mph 29.9 mph N/A   Scattered Clouds
7:51 PM 22.1 °F 6.4 °F 20.3 °F 93% 30.08 in 7.0 mi North 21.9 mph 31.1 mph N/A   Clear
8:11 PM 21.7 °F 5.9 °F 20.3 °F 94% 30.08 in 7.0 mi North 21.9 mph 29.9 mph N/A   Mostly Cloudy
8:31 PM 21.2 °F 5.2 °F 19.9 °F 95% 30.08 in 7.0 mi North 21.9 mph 31.1 mph N/A   Overcast
8:51 PM 20.8 °F 4.0 °F 19.6 °F 95% 30.09 in 7.0 mi North 24.2 mph 32.2 mph N/A   Overcast
9:11 PM 21.2 °F 6.4 °F 20.1 °F 96% 30.09 in 7.0 mi North 18.4 mph 27.6 mph N/A   Mostly Cloudy
9:31 PM 21.2 °F 6.0 °F 19.9 °F 95% 30.09 in 10.0 mi North 19.6 mph 26.5 mph N/A   Scattered Clouds
9:51 PM 20.3 °F 4.8 °F 19.2 °F 96% 30.12 in 7.0 mi NE 19.6 mph 28.8 mph N/A   Mostly Cloudy
10:11 PM 19.9 °F 5.2 °F 19.2 °F 97% 30.15 in 5.0 mi NNE 17.3 mph 20.7 mph N/A   Overcast
10:31 PM 20.1 °F 6.9 °F 19.4 °F 97% 30.16 in 7.0 mi North 13.8 mph - N/A   Overcast
10:51 PM 20.1 °F 13.6 °F 19.2 °F 96% 30.16 in 7.0 mi North 4.6 mph - N/A   Mostly Cloudy
11:11 PM 20.1 °F - 19.2 °F 96% 30.15 in 7.0 mi Calm Calm - N/A   Mostly Cloudy
11:31 PM 19.9 °F 12.1 °F 18.3 °F 93% 30.15 in 10.0 mi WSW 5.8 mph - N/A   Scattered Clouds
11:51 PM 21.2 °F 10.9 °F 19.4 °F 93% 30.15 in 10.0 mi SW 9.2 mph - N/A   Mostly Cloudy